This demonstration page uses our WeatherBlox Daily Observations layout. Learn more.

Left ArrowRight Arrow

Hourly Observations for February 14, 2022

Temp ( °F °C ) Dew Point ( °F °C ) Humidity (%) Winds ( mph kmh ) Pressure ( in mb ) Visibility ( mi km ) Precip ( " mm )
12:56 am 00:56 Clear 31 -0.6 18 -7.8 59 59 NW 10 17 30.17 1022 10 16 0.00 0.00
1:56 am 01:56 Clear 32 0 18 -7.8 56 56 NW 10 17 30.18 1022 10 16 0.00 0.00
2:56 am 02:56 Clear 31 -0.6 19 -7.2 61 61 NW 9 15 30.19 1023 10 16 0.00 0.00
3:56 am 03:56 Clear 31 -0.6 19 -7.2 61 61 NNW 9 15 30.20 1023 10 16 0.00 0.00
4:56 am 04:56 Clear 27 -2.8 17 -8.3 66 66 NW 6 9 30.23 1024 10 16 0.00 0.00
5:56 am 05:56 Clear 28 -2.2 19 -7.2 69 69 N 10 17 30.24 1024 10 16 0.00 0.00
6:56 am 06:56 Clear 28 -2.2 20 -6.7 72 72 NNW 8 13 30.28 1025 10 16 0.00 0.00
7:56 am 07:56 Sunny 26 -3.3 19 -7.2 75 75 NNW 6 9 30.30 1026 10 16 0.00 0.00
8:56 am 08:56 Sunny 30 -1.1 21 -6.1 69 69 NW 5 7 30.31 1026 10 16 0.00 0.00
9:56 am 09:56 Sunny 37 2.8 20 -6.7 50 50 N 15 24 30.31 1026 10 16 0.00 0.00
10:56 am 10:56 Sunny 39 3.9 19 -7.2 45 45 N 12 19 30.32 1027 10 16 0.00 0.00
11:56 am 11:56 Sunny 41 5 18 -7.8 39 39 NE 7 11 30.31 1026 10 16 0.00 0.00
12:56 pm 12:56 Sunny 43 6.1 18 -7.8 37 37 NE 3 6 30.27 1025 10 16 0.00 0.00
1:56 pm 13:56 Sunny 45 7.2 17 -8.3 33 33 VRB 5 7 30.23 1024 10 16 0.00 0.00
2:56 pm 14:56 Sunny 46 7.8 17 -8.3 31 31 E 7 11 30.18 1022 10 16 0.00 0.00
3:56 pm 15:56 Sunny 47 8.3 16 -8.9 29 29 SE 10 17 30.17 1022 10 16 0.00 0.00
4:56 pm 16:56 Sunny 47 8.3 17 -8.3 30 30 SE 12 19 30.15 1021 10 16 0.00 0.00
5:56 pm 17:56 Sunny 42 5.6 15 -9.4 33 33 SE 9 15 30.14 1021 10 16 0.00 0.00
6:56 pm 18:56 Clear 35 1.7 15 -9.4 44 44 SE 10 17 30.14 1021 10 16 0.00 0.00
7:56 pm 19:56 Clear 32 0 15 -9.4 50 50 SE 12 19 30.14 1021 10 16 0.00 0.00
8:56 pm 20:56 Clear 30 -1.1 14 -10 51 51 SE 8 13 30.15 1021 10 16 0.00 0.00
9:56 pm 21:56 Clear 27 -2.8 13 -10.6 55 55 SE 8 13 30.14 1021 10 16 0.00 0.00
10:56 pm 22:56 Clear 26 -3.3 13 -10.6 57 57 SE 10 17 30.11 1020 10 16 0.00 0.00
11:56 pm 23:56 Clear 28 -2.2 14 -10 56 56 SE 10 17 30.08 1019 10 16 0.00 0.00

Powered by AerisWeather